{"data":{"norad_id":62386,"epoch":"2026-05-25T03:19:11.470080Z","epoch_age_seconds":66197,"freshness":"FRESH","line1":"1 62386U 24247K   26145.13832720  .00005506  00000+0  20340-3 0  9995","line2":"2 62386  44.9837  59.2108 0004605 265.9563  94.0794 15.28803230 79425","mean_motion":15.2880323,"eccentricity":0.0004605,"inclination_deg":44.9837,"raan_deg":59.2108,"arg_perigee_deg":265.9563,"mean_anomaly_deg":94.0794,"bstar":0.0002034,"rev_number":7942,"period_min":94.191323758519,"perigee_km":476.23085720991,"apogee_km":482.54663842365,"semimajor_km":6857.5257478168,"source":"CELESTRAK","updated_at":"2026-05-25T13:38:02.946074Z"}}